Home > Time Zones > World Clock > Weather > Spain > Jaén > Past weeks

Flag for Spain Weather past 2 weeks in Jaén, Spain

Now
64 °F

Scattered clouds.


Feels Like: 64 °F
Forecast: 51 / 72 °F
Wind: 13 mph from West

Location: Granada / Aeropuerto

Current Time: Apr 27, 2015 at 4:19:59 PM

Latest Report: Apr 27, 2015 at 4:00 PM


Visibility: N/A

Pressure: 30.04 "Hg

Humidity: 52%

Dew point: 46 °F

Location of JaénLocation

Historic Weather in Jaén — Graph

°F

Jaén temperature yesterday

Maximum temperature yesterday: 64 °F (at 11:00 AM)
Minimum temperature yesterday: 55 °F (at 6:30 AM)
Average temperature yesterday: 59 °F

Past Weeks' High & Low Weather Summary

 TemperatureHumidityPressure
High84 °F (Apr 14, 4:30 PM)100% (Apr 15, 10:00 AM)30.21 "Hg (Apr 15, 10:00 AM)
Low41 °F (Apr 20, 7:30 AM)14% (Apr 14, 4:30 PM)29.86 "Hg (Apr 26, 3:00 PM)
Average64 °F57%30.05 "Hg
* Reported Apr 12 3:00 PM — Apr 27 3:00 PM, Jaén, Weather by CustomWeather, © 2015

Note: Actual official high and low records may vary slightly from our data, if they occured in-between our weather recording intervals... More about our weather records

Advertising

Jaén weather history for previous 24 hours

 ConditionsComfort  
Time TempWeatherWind HumidityBarometerVisibility
3:00 PM
Mon, Apr 27
63 °FPartly sunny.14 mph64%30.04 "HgN/A
2:30 PM61 °FPartly sunny.13 mph63%30.04 "HgN/A
2:00 PM59 °FPartly sunny.16 mph72%30.04 "HgN/A
1:30 PM61 °FPartly sunny.9 mph63%30.04 "HgN/A
1:00 PM59 °FPartly sunny.8 mph72%30.07 "HgN/A
12:30 PM57 °FPartly sunny.8 mph67%30.07 "HgN/A
12:00 PM57 °FPartly sunny.6 mph72%30.07 "HgN/A
11:30 AM55 °FPartly sunny.6 mph82%30.07 "HgN/A
11:00 AM55 °FPartly sunny.10 mph77%30.04 "HgN/A
10:30 AM54 °FBroken clouds.8 mph82%30.04 "HgN/A
10:00 AM54 °FBroken clouds.7 mph88%30.04 "HgN/A
9:30 AM52 °FPartly sunny.8 mph94%30.04 "HgN/A
9:00 AM52 °FOvercast.7 mph94%30.01 "HgN/A
8:30 AM52 °FOvercast.7 mph88%30.01 "HgN/A
8:00 AM52 °FPassing clouds.8 mph88%30.01 "HgN/A
7:30 AM52 °FPassing clouds.8 mph88%29.98 "HgN/A
7:00 AM52 °FPassing clouds.10 mph88%29.98 "HgN/A
6:30 AM52 °FPartly cloudy.8 mph88%29.98 "HgN/A
6:00 AM52 °FPartly cloudy.8 mph88%29.98 "HgN/A
11:30 PM
Sun, Apr 26
55 °FLight rain. Partly cloudy.9 mph77%29.95 "HgN/A
11:00 PM55 °FPartly cloudy.10 mph77%29.95 "HgN/A
10:30 PM57 °FPartly cloudy.10 mph72%29.92 "HgN/A
10:00 PM57 °FPartly cloudy.9 mph72%29.92 "HgN/A
9:30 PM57 °FScattered clouds.12 mph67%29.89 "HgN/A
9:00 PM57 °FScattered clouds.9 mph67%29.89 "HgN/A
8:30 PM61 °FScattered clouds.12 mph63%29.86 "HgN/A
8:00 PM61 °FScattered clouds.17 mph68%29.86 "HgN/A
7:30 PM63 °FScattered clouds.18 mph59%29.86 "HgN/A
7:00 PM63 °FScattered clouds.14 mph64%29.86 "HgN/A
6:30 PM63 °FBroken clouds.13 mph77%29.86 "HgN/A
6:00 PM59 °FBroken clouds.3 mph94%29.86 "HgN/A
5:30 PM59 °FRain. Broken clouds.7 mph94%29.86 "Hg5 mi
5:00 PM57 °FLots of rain. Broken clouds.7 mph100%29.86 "Hg2 mi
4:30 PM59 °FLots of rain. Broken clouds.2 mph94%29.86 "Hg3 mi
4:00 PM61 °FBroken clouds.5 mph94%29.86 "Hg5 mi
Weather by CustomWeather, © 2015

See weather overviewHow to use our weather pages